Regional Weather Roundup
Issued by NWS

Home | Current Version | Previous Version | Text Only | Print | Product List | Glossary Off
Versions: 1 2 3 4 5 6 7 8 9 10 11 12 13 14 15 16 17 18 19 20 21 22 23 24 25 26 27 28 29 30 31 32 33 34 35 36 37 38 39 40 41 42 43 44 45 46 47 48 49 50

000
ASUS43 KBIS 260559
RWRND

NORTH DAKOTA REGIONAL WEATHER ROUNDUP
NATIONAL WEATHER SERVICE BISMARCK ND
100 AM CDT SUN OCT 26 2014

NOTE: "FAIR" INDICATES FEW OR NO CLOUDS BELOW 12,000 FEET WITH NO
SIGNIFICANT WEATHER AND/OR OBSTRUCTIONS TO VISIBILITY.


NDZ001>003-009>011-017-260700-
NORTHWEST NORTH DAKOTA

CITY           SKY/WX    TMP DP  RH WIND       PRES   REMARKS
WILLISTON      MOCLDY    54  30  40 SE14      29.72F
6HR MIN TEMP:  51; 6HR MAX TEMP:  57;

MINOT          MOCLDY    38  30  73 SE5       29.85F
$$

NDZ018>021-031>035-040>046-260700-
SOUTHWEST NORTH DAKOTA

CITY           SKY/WX    TMP DP  RH WIND       PRES   REMARKS
BISMARCK       CLEAR     47  32  56 SE15      29.87F
6HR MIN TEMP:  40; 6HR MAX TEMP:  49;

GARRISON         N/A     47  31  53 SE10      29.85F
6HR MIN TEMP:  46; 6HR MAX TEMP:  51;

HETTINGER ARPT PTCLDY    49  29  46 SE15G22   29.78F
$$

NDZ004>008-012>016-024-026-027-054-260700-
NORTHEAST NORTH DAKOTA

CITY           SKY/WX    TMP DP  RH WIND       PRES   REMARKS
GRAND FORKS    CLEAR     32  25  75 SW5       29.98S
DEVILS LAKE    PTCLDY    37  27  65 SE3       29.94S
$$

NDZ022-023-025-028>030-036>039-047>053-260700-
SOUTHEAST NORTH DAKOTA

CITY           SKY/WX    TMP DP  RH WIND       PRES   REMARKS
FARGO          CLEAR     38  24  57 SE5       29.99F
6HR MIN TEMP:  35; 6HR MAX TEMP:  52;

$$




USA.gov is the U.S. government's official web portal to all federal, state and local government web resources and services.